Weather observations for the past three days for
Muir Army Air Field / Indiantown
Imperial (Metric)
Date Time (edt) Wind (mph) Vis. (mi.) Weather Sky Cond. Temperature (ºF) Relative Humidity Wind Chill (°F) Heat Index (°F) Pressure Precipitation (in)
Air Dwpt 6 hour altimeter (in) sea level (mb) 1 hr 3 hr 6 hr
Max. Min.
12 12:55 S 3 10.00 Light Rain FEW035 BKN080 OVC120 76.6 66.9 72% 78 30.19 1022.4
12 11:55 SE 5 10.00 Showers in Vicinity FEW035 BKN075 OVC150 76.6 64.8 67% 78 30.19 1022.3
12 10:55 Calm 10.00 Showers in Vicinity FEW040 FEW070 BKN140 OVC200 76.1 66.7 73% 78 30.15 1020.9
12 09:55 SE 5 10.00 Showers in Vicinity SCT080 BKN150 BKN190 74.8 67.8 79% 30.16 1021.3
12 08:55 Calm 10.00 Showers in Vicinity FEW040 SCT120 BKN180 BKN250 74.7 68 80% 30.14 1020.6
12 07:55 Calm 10.00 Mostly Cloudy FEW040 BKN180 BKN250 69.1 66.4 69.1 63.9 91% 30.14 1020.6
12 06:55 Calm 10.00 Mostly Cloudy BKN190 BKN250 66.2 64.4 94% 30.12 1020.0
12 05:55 Calm 10.00 Mostly Cloudy BKN180 64.8 63.3 95% 30.11 1019.6
12 04:55 Calm 10.00 Fair CLR 66.2 64.4 94% 30.1 1019.3
12 03:55 Calm 10.00 Fair CLR 65.7 64.2 95% 30.08 1018.6
12 02:55 Calm 10.00 Fair CLR 66.2 64 93% 30.08 1018.6
12 01:55 Calm 10.00 Fair CLR 66.9 65.1 79.3 66.4 94% 30.09 1018.9
12 00:55 Calm 10.00 Fair CLR 67.8 65.3 92% 30.09 1018.9
11 23:55 Calm 10.00 Fair CLR 71.8 66 82% 30.08 1018.6
11 22:55 Calm 10.00 A Few Clouds FEW055 72.3 66.7 83% 30.07 1018.2
11 21:55 Calm 10.00 Mostly Cloudy BKN055 76.8 66.7 71% 79 30.06 1017.9
11 20:55 W 3 10.00 Mostly Cloudy BKN055 77.2 66.2 69% 79 30.05 1017.5
11 19:55 W 5 10.00 Overcast OVC055 79.3 64.8 82 79.3 61% 81 30.04 1017.2
11 18:55 W 7 10.00 Overcast OVC050 80.6 64.4 58% 82 30.02 1016.5
11 17:55 W 8 10.00 Overcast OVC049 80.6 63.3 56% 82 30.01 1016.2
11 16:55 W 8 10.00 Overcast OVC048 81.1 63.3 55% 82 30 1015.8
11 15:55 W 12 10.00 Overcast OVC045 81 62.8 54% 82 29.99 1015.5
11 14:55 W 6 10.00 Overcast OVC043 81 63.1 55% 82 29.98 1015.1
11 13:55 W 10 10.00 Overcast BKN041 OVC050 80.1 62.4 80.1 74.1 55% 81 29.98 1015.1
11 12:55 W 10 10.00 Overcast BKN039 OVC045 79 62.4 57% 80 29.97 1014.8
11 11:55 W 13 G 17 10.00 Overcast BKN037 OVC045 78.8 63.1 59% 80 29.97 1014.8
11 10:55 W 8 10.00 Mostly Cloudy BKN036 BKN045 78.3 62.2 58% 80 29.95 1014.1
11 09:55 SW 15 10.00 Overcast SCT035 OVC040 77.4 62.4 60% 79 29.94 1013.8
11 08:55 SW 8 10.00 Mostly Cloudy FEW035 BKN040 BKN200 75.4 63.1 66% 77 29.93 1013.4
11 07:55 SW 5 10.00 Mostly Cloudy BKN040 BKN200 73.9 63.1 74.8 68.9 69% 29.91 1012.7
11 06:55 W 5 10.00 Mostly Cloudy BKN041 BKN200 72.3 62.8 72% 29.89 1012.0
11 05:55 W 3 10.00 Mostly Cloudy BKN042 69.8 63.3 80% 29.87 1011.3
11 04:55 W 8 10.00 Overcast OVC038 72.9 62.1 69% 29.85 1010.6
11 03:55 W 5 10.00 Fair CLR 72.5 61.7 69% 29.83 1009.9
11 02:55 W 10 10.00 Fair CLR 74.5 61.9 65% 29.83 1009.9
11 01:55 W 6 10.00 A Few Clouds FEW070 74.3 64.2 87.8 74.3 71% 29.81 1009.2 0.59
11 00:55 W 9 10.00 Partly Cloudy SCT065 77.5 65.7 67% 79 29.79 1008.5
10 23:55 W 9 10.00 Mostly Cloudy BKN070 77.5 69.6 77% 79 29.78 1008.2
10 22:55 W 3 10.00 Overcast OVC070 77 75 94% 78 29.75 1007.2 0.59
10 21:55 SW 3 G 18 5.00 Thunderstorm Light Rain Fog/Mist FEW002 BKN025CB BKN055 77 73.4 89% 78 29.74 1006.9
10 20:55 S 15 10.00 Thunderstorm in Vicinity OVC036CB 86.5 74.1 67% 95 29.7 1005.5
10 19:55 S 12 G 20 10.00 Overcast OVC043 87.8 73.9 95.5 87.8 64% 96 29.69 1005.2
10 18:55 S 17 G 23 10.00 Showers in Vicinity BKN038 OVC050 89.1 73.8 61% 98 29.69 1005.2
10 17:55 S 15 G 25 10.00 Mostly Cloudy SCT042 BKN055 90.7 73.8 58% 100 29.69 1005.2
10 16:55 S 16 G 26 10.00 Mostly Cloudy BKN041 BKN250 93.4 73 52% 103 29.68 1004.8
10 15:55 S 17 G 25 10.00 Mostly Cloudy SCT043 BKN055 95.5 73.8 49% 106 29.7 1005.5
10 14:55 S 15 G 25 10.00 Mostly Cloudy SCT043 BKN060 BKN250 93.4 73 52% 103 29.73 1006.5
10 13:55 S 14 G 24 10.00 Mostly Cloudy SCT044 BKN055 95.7 72.9 95.9 81.1 48% 105 29.74 1006.8
10 12:55 S 16 G 21 10.00 Mostly Cloudy BKN050 94.3 73.2 51% 104 29.77 1007.9
10 11:55 S 17 G 22 10.00 Mostly Cloudy BKN035 BKN047 91.9 74.5 57% 102 29.79 1008.6
10 10:55 S 8 10.00 Mostly Cloudy BKN027 BKN036 89.8 75.4 63% 101 29.81 1009.2
10 09:55 S 8 10.00 Overcast BKN018 OVC050 86.7 76.1 71% 97 29.82 1009.6
10 08:55 S 3 8.00 Mostly Cloudy BKN013 BKN200 84.4 76.6 78% 94 29.84 1010.3
10 07:55 E 3 6.00 Fog/Mist SCT007 BKN009 BKN015 BKN200 80.6 77 81 73.9 89% 87 29.85 1010.6
10 06:55 Calm 6.00 Fog/Mist OVC008 78.8 75.6 90% 82 29.85 1010.6
10 05:55 Calm 10.00 Overcast OVC010 77 74.1 91% 78 29.84 1010.2
10 04:55 NE 3 10.00 Mostly Cloudy BKN018 76.8 73.6 90% 78 29.85 1010.6
10 03:55 Calm 10.00 Fair CLR 75.4 71.2 87% 75 29.85 1010.6
10 02:55 Calm 10.00 Fair CLR 75.2 70.3 85% 75 29.87 1011.3
10 01:55 Calm 10.00 Fair CLR 76.3 70.7 86.2 74.7 83% 77 29.88 1011.6
10 00:55 Calm 10.00 Fair CLR 75.7 70.2 83% 76 29.89 1012.0
09 23:55 NE 3 10.00 Fair CLR 75.7 70.2 83% 76 29.89 1012.0
09 22:55 Calm 10.00 A Few Clouds FEW240 78.8 69.8 74% 81 29.9 1012.3
09 21:55 Calm 10.00 Partly Cloudy SCT160 80.4 70.9 73% 84 29.9 1012.3
09 20:55 Calm 10.00 Mostly Cloudy FEW047 SCT055 BKN075 BKN160 84 69.1 61% 88 29.89 1012.0
09 19:55 Calm 10.00 Showers in Vicinity SCT048 BKN055 BKN090 BKN180 86.4 69.3 98.1 86.4 57% 91 29.89 1012.0
09 18:55 SE 7 10.00 Mostly Cloudy SCT047 BKN070 BKN250 91.4 75 59% 102 29.87 1011.3
09 17:55 W 3 10.00 Mostly Cloudy FEW050 BKN075 BKN250 95 66 39% 98 29.87 1011.3
09 16:55 W 3 10.00 Mostly Cloudy FEW070 SCT120 BKN250 96.8 65.3 36% 100 29.88 1011.6
09 15:55 W 10 10.00 Mostly Cloudy FEW050 SCT140 BKN250 96.8 62.1 32% 98 29.89 1012.0
09 14:55 SW 9 10.00 Mostly Cloudy FEW050 BKN200 96.8 62.8 33% 98 29.91 1012.6
09 13:55 S 10 10.00 Mostly Cloudy SCT046 BKN200 95.4 66.4 96.1 79.9 39% 99 29.93 1013.3
Date Time (edt) Wind (mph) Vis. (mi.) Weather Sky Cond. Air Dwpt Max. Min. Relative Humidity Wind Chill (°F) Heat Index (°F) altimeter (in) sea level (mb) 1 hr 3 hr 6 hr
6 hour
Temperature (ºF) Pressure Precipitation (in)